| time (UTC) | temp F | wind direction | speed MPH | gust MPH | rain 1hr in | rain 24hr in | rain mn in | humidity % | barometer mb |
| 20260505101544 | 61 | 222 | 10.0 | 29.0 | 0.00 | 0.00 | 0.00 | 68 | 998.6 |
| 20260505100032 | 61 | 231 | 13.0 | 25.0 | 0.00 | 0.00 | 0.00 | 68 | 998.4 |
| 20260505094537 | 61 | 241 | 12.0 | 21.0 | 0.00 | 0.00 | 0.00 | 67 | 998.5 |
| 20260505093031 | 61 | 250 | 7.0 | 19.0 | 0.00 | 0.00 | 0.00 | 67 | 998.4 |
| 20260505091531 | 60 | 243 | 11.0 | 26.0 | 0.00 | 0.00 | 0.00 | 68 | 998.3 |
| 20260505090027 | 60 | 277 | 7.0 | 20.0 | 0.00 | 0.00 | 0.00 | 68 | 998.4 |
| 20260505084526 | 60 | 281 | 14.0 | 25.0 | 0.00 | 0.00 | 0.00 | 67 | 998.9 |
| 20260505083025 | 59 | 244 | 12.0 | 22.0 | 0.00 | 0.00 | 0.00 | 67 | 998.8 |
| 20260505081522 | 58 | 246 | 7.0 | 16.0 | 0.00 | 0.00 | 0.00 | 66 | 998.7 |
| 20260505080020 | 57 | 238 | 8.0 | 14.0 | 0.00 | 0.00 | 0.00 | 65 | 998.8 |
| 20260505074517 | 57 | 214 | 7.0 | 11.0 | 0.00 | 0.00 | 0.00 | 64 | 998.8 |
| 20260505073013 | 57 | 277 | 2.0 | 9.0 | 0.00 | 0.00 | 0.00 | 65 | 999.1 |
| 20260505071526 | 58 | 283 | 5.0 | 11.0 | 0.00 | 0.00 | 0.00 | 66 | 999.2 |
| 20260505070009 | 59 | 253 | 7.0 | 14.0 | 0.00 | 0.00 | 0.00 | 67 | 999.2 |
| 20260505064508 | 59 | 242 | 9.0 | 16.0 | 0.00 | 0.00 | 0.00 | 69 | 999.3 |
| 20260505063004 | 60 | 254 | 7.0 | 18.0 | 0.00 | 0.00 | 0.00 | 69 | 999.4 |
| 20260505061500 | 60 | 256 | 8.0 | 23.0 | 0.00 | 0.00 | 0.00 | 69 | 999.4 |
| 20260505060100 | 61 | 263 | 7.0 | 19.0 | 0.00 | 0.00 | 0.00 | 68 | 999.4 |
| 20260505054557 | 61 | 235 | 12.0 | 27.0 | 0.00 | 0.00 | 0.00 | 68 | 999.4 |
| 20260505053055 | 61 | 249 | 12.0 | 24.0 | 0.00 | 0.00 | 0.00 | 68 | 999.6 |
| 20260505051604 | 60 | 249 | 10.0 | 21.0 | 0.00 | 0.00 | 0.00 | 69 | 999.7 |
| 20260505041543 | 61 | 203 | 8.0 | 20.0 | 0.00 | 0.00 | 0.00 | 69 | 1000.0 |
| 20260505040040 | 62 | 238 | 10.0 | 21.0 | 0.00 | 0.00 | 0.00 | 67 | 1000.0 |
| 20260505034537 | 63 | 220 | 8.0 | 19.0 | 0.00 | 0.00 | 0.00 | 61 | 1000.3 |
| 20260505033038 | 64 | 246 | 8.0 | 19.0 | 0.00 | 0.00 | 0.00 | 58 | 1000.1 |
| 20260505031536 | 64 | 254 | 9.0 | 15.0 | 0.00 | 0.00 | 0.00 | 56 | 1000.2 |
| 20260505030035 | 64 | 280 | 10.0 | 17.0 | 0.00 | 0.00 | 0.00 | 54 | 1000.2 |
| 20260505024535 | 64 | 238 | 6.0 | 16.0 | 0.00 | 0.00 | 0.00 | 52 | 999.9 |
| 20260505023034 | 64 | 252 | 6.0 | 16.0 | 0.00 | 0.00 | 0.00 | 51 | 1000.0 |
| 20260505021534 | 64 | 238 | 3.0 | 12.0 | 0.00 | 0.00 | 0.00 | 48 | 1000.0 |
| 20260505020033 | 64 | 241 | 5.0 | 16.0 | 0.00 | 0.00 | 0.00 | 48 | 1000.2 |
| 20260505014532 | 65 | 232 | 4.0 | 12.0 | 0.00 | 0.00 | 0.00 | 47 | 1000.3 |
| 20260505013043 | 65 | 236 | 4.0 | 12.0 | 0.00 | 0.00 | 0.00 | 45 | 1000.3 |
| 20260505011531 | 65 | 235 | 4.0 | 14.0 | 0.00 | 0.00 | 0.00 | 43 | 1000.2 |
| 20260505010031 | 66 | 240 | 7.0 | 14.0 | 0.00 | 0.00 | 0.00 | 41 | 1000.1 |
| 20260505004530 | 67 | 246 | 3.0 | 14.0 | 0.00 | 0.00 | 0.00 | 39 | 1000.1 |
| 20260505003033 | 67 | 247 | 7.0 | 16.0 | 0.00 | 0.00 | 0.00 | 37 | 1000.0 |
| 20260505001529 | 68 | 252 | 5.0 | 12.0 | 0.00 | 0.00 | 0.00 | 37 | 1000.1 |
| 20260505000031 | 69 | 260 | 5.0 | 12.0 | 0.00 | 0.00 | 0.00 | 35 | 1000.1 |
| 20260504234531 | 69 | 275 | 5.0 | 12.0 | 0.00 | 0.00 | 0.00 | 35 | 999.9 |
| 20260504233028 | 70 | 263 | 6.0 | 16.0 | 0.00 | 0.00 | 0.00 | 34 | 999.8 |
| 20260504231526 | 70 | 250 | 4.0 | 14.0 | 0.00 | 0.00 | 0.00 | 35 | 999.6 |
| 20260504230026 | 70 | 239 | 10.0 | 17.0 | 0.00 | 0.00 | 0.00 | 34 | 999.7 |
| 20260504224525 | 71 | 272 | 9.0 | 16.0 | 0.00 | 0.00 | 0.00 | 34 | 999.7 |
| 20260504223025 | 71 | 300 | 5.0 | 14.0 | 0.00 | 0.00 | 0.00 | 36 | 999.7 |
| 20260504221524 | 72 | 261 | 8.0 | 18.0 | 0.00 | 0.00 | 0.00 | 33 | 999.6 |
| 20260504220037 | 72 | 297 | 6.0 | 14.0 | 0.00 | 0.00 | 0.00 | 35 | 999.7 |
| 20260504214525 | 71 | 310 | 7.0 | 13.0 | 0.00 | 0.00 | 0.00 | 38 | 999.8 |
| 20260504213022 | 71 | 267 | 6.0 | 20.0 | 0.00 | 0.00 | 0.00 | 35 | 999.9 |
| 20260504211526 | 72 | 277 | 10.0 | 19.0 | 0.00 | 0.00 | 0.00 | 36 | 1000.0 |
| 20260504210017 | 72 | 286 | 8.0 | 19.0 | 0.00 | 0.00 | 0.00 | 36 | 1000.1 |
| 20260504204518 | 72 | 276 | 8.0 | 19.0 | 0.00 | 0.00 | 0.00 | 36 | 1000.2 |
| 20260504203013 | 72 | 302 | 9.0 | 21.0 | 0.00 | 0.00 | 0.00 | 38 | 1000.3 |
| 20260504201511 | 71 | 233 | 9.0 | 17.0 | 0.00 | 0.00 | 0.00 | 40 | 1000.5 |
| 20260504200008 | 71 | 259 | 8.0 | 18.0 | 0.00 | 0.00 | 0.00 | 39 | 1000.8 |
| 20260504194507 | 71 | 296 | 11.0 | 23.0 | 0.00 | 0.00 | 0.00 | 39 | 1001.0 |
| 20260504193004 | 69 | 268 | 11.0 | 18.0 | 0.00 | 0.00 | 0.00 | 41 | 1001.3 |
| 20260504191503 | 71 | 276 | 15.0 | 27.0 | 0.00 | 0.00 | 0.00 | 40 | 1001.5 |
| 20260504190116 | 70 | 283 | 10.0 | 22.0 | 0.00 | 0.00 | 0.00 | 45 | 1001.7 |
| 20260504184626 | 68 | 294 | 8.0 | 20.0 | 0.00 | 0.00 | 0.00 | 47 | 1001.8 |
| 20260504183057 | 70 | 256 | 9.0 | 20.0 | 0.00 | 0.00 | 0.00 | 45 | 1002.0 |
| 20260504181557 | 70 | 303 | 11.0 | 24.0 | 0.00 | 0.00 | 0.00 | 48 | 1002.1 |
| 20260504180055 | 69 | 296 | 13.0 | 21.0 | 0.00 | 0.00 | 0.00 | 47 | 1002.2 |
| 20260504174553 | 69 | 273 | 14.0 | 25.0 | 0.00 | 0.00 | 0.00 | 51 | 1002.2 |
| 20260504173050 | 69 | 266 | 10.0 | 17.0 | 0.00 | 0.00 | 0.00 | 52 | 1002.2 |
| 20260504171550 | 68 | 273 | 10.0 | 26.0 | 0.00 | 0.00 | 0.00 | 55 | 1002.4 |